Wind_Speed
46 46 46 45 46 48 49 48 48 48 49 50 52 53 54 55 56 57 58 60 61 63 64 66 68 71 74 77 80 83 85 88 90 93 95 97 100 103 106 109 110 111 113 114 116 117 119 120 121 121 121 121 120 118 116 116 117 118 119 119 119 120 121 122 122 122 121 121 122 124 125 125 126 126 126 125 124 123 122 122 122 123 123 123 123
42 42 43 43 43 44 45 45 45 45 46 47 49 50 51 52 54 56 57 57 58 59 61 62 64 67 69 72 75 79 82 84 86 89 90 93 96 100 103 106 107 108 109 111 112 114 117 118 118 118 118 118 118 116 114 113 114 115 116 117 117 118 119 120 121 120 119 119 120 121 122 123 124 125 125 124 124 123 122 122 122 122 122 122 122
39 39 40 40 40 41 42 43 43 43 44 45 46 48 49 50 52 53 55 56 56 57 58 60 61 63 66 68 71 75 78 80 83 85 87 89 92 96 99 102 105 106 107 109 111 113 115 115 115 115 115 115 115 114 112 111 110 111 112 114 115 116 117 118 119 119 117 116 116 118 120 121 122 123 123 123 123 122 122 122 121 121 121 121 121
37 37 38 39 39 40 41 42 42 43 43 44 45 46 47 48 50 51 52 53 54 55 56 57 59 61 63 65 68 70 73 76 79 81 84 86 89 92 95 98 101 103 104 106 109 111 111 111 111 112 113 113 112 112 111 109 108 108 109 111 112 114 116 118 119 118 115 113 113 115 117 119 120 121 122 122 122 122 122 121 121 121 120 120 120
36 36 36 37 38 38 39 40 41 42 42 42 42 43 45 46 47 49 50 51 52 53 54 55 56 58 60 63 65 67 69 72 74 77 80 83 86 89 92 95 97 99 101 103 106 108 107 107 107 108 110 110 109 109 109 108 108 107 108 108 110 111 114 116 118 118 115 113 112 113 115 116 118 119 120 121 121 121 120 120 121 121 120 119 118
35 35 35 36 37 37 37 38 39 40 40 40 40 40 41 43 44 45 47 49 50 52 53 53 54 56 58 60 62 64 66 68 70 72 75 78 81 84 88 91 94 96 98 101 103 105 104 103 103 105 106 106 106 107 107 107 107 106 106 106 107 109 111 113 116 117 116 113 112 112 112 114 116 117 118 119 120 119 118 119 121 121 121 119 118
35 34 35 36 36 36 37 37 38 39 39 39 39 38 38 39 41 42 44 46 48 49 51 52 53 54 55 57 59 61 63 65 66 68 71 73 76 78 81 84 87 90 93 96 98 100 101 100 100 101 102 102 103 104 105 105 105 104 104 105 106 107 108 110 113 115 115 113 111 110 111 113 114 115 117 118 118 117 117 118 120 121 121 119 117
35 34 33 34 35 36 37 37 37 38 38 38 37 37 36 37 38 39 40 42 44 46 48 49 50 52 53 55 56 58 60 62 63 65 67 69 71 73 75 77 79 81 84 87 90 92 94 95 96 97 98 99 100 101 102 102 102 101 101 101 103 104 104 106 108 111 112 111 110 109 109 111 112 113 114 115 115 115 116 118 119 118 118 117 117
34 33 32 32 34 35 37 37 37 37 37 37 36 36 35 36 37 37 38 40 41 42 44 46 47 49 51 52 53 55 56 58 60 62 64 65 67 68 70 71 73 74 76 78 81 83 85 87 88 90 91 92 94 96 97 97 96 96 96 97 98 99 100 101 103 105 106 107 106 106 107 108 108 109 110 111 112 114 116 116 115 113 113 114 116
34 33 32 31 32 34 35 36 37 37 37 36 35 35 35 35 35 36 37 39 40 41 41 42 44 46 48 49 50 52 54 56 58 59 61 62 62 64 65 66 68 69 70 72 74 76 78 79 80 82 83 84 86 88 89 90 90 90 91 92 94 95 97 97 98 100 101 102 103 104 104 104 105 106 106 107 109 112 114 112 110 109 110 111 113
33 33 32 31 31 32 33 34 36 36 36 36 35 35 34 34 34 35 36 37 38 39 39 40 42 44 45 46 48 49 51 53 55 57 57 58 59 60 61 62 63 64 66 67 69 71 73 74 74 76 77 78 79 81 83 83 84 85 87 88 89 91 93 94 95 96 97 99 100 101 101 101 102 102 102 104 107 110 110 108 106 105 105 107 108
31 32 32 31 31 30 31 31 32 34 35 36 35 34 34 34 34 34 35 35 36 36 37 39 41 42 43 44 46 47 49 51 52 53 53 53 54 55 56 58 60 62 64 65 67 68 70 71 71 72 73 74 75 77 78 78 80 81 83 84 86 87 89 91 92 93 94 96 97 98 99 99 100 99 99 101 105 107 106 104 101 101 101 101 102
29 30 31 31 31 30 29 29 29 30 32 34 34 33 33 33 34 34 34 34 34 34 35 37 39 40 41 42 43 45 47 49 49 48 48 49 50 51 53 55 58 60 62 64 66 67 68 69 69 69 70 72 73 73 74 75 76 77 78 80 82 83 84 86 88 90 91 93 94 95 96 97 97 96 96 99 102 104 102 99 97 96 95 96 97
29 28 29 30 30 29 27 26 26 26 28 30 31 32 32 33 33 34 34 34 34 33 33 34 35 37 38 39 40 42 45 46 46 46 46 47 48 49 50 53 55 58 60 61 63 65 66 67 68 68 68 69 70 71 71 72 73 74 74 75 77 78 79 81 84 86 88 89 89 91 93 94 93 92 93 96 99 99 96 93 90 89 89 90 92
31 29 28 28 29 28 27 25 24 24 24 26 28 30 31 32 32 33 33 33 32 32 31 32 33 34 35 37 39 40 42 43 43 43 43 44 46 46 47 50 53 55 56 58 59 61 63 64 65 66 67 67 67 68 69 70 70 70 70 71 72 73 75 77 79 81 83 84 86 88 90 90 89 88 90 93 93 90 87 84 83 83 85 87 88
31 30 29 27 27 28 27 26 25 24 23 24 26 27 28 28 29 29 30 30 30 31 31 31 31 32 33 34 36 37 38 38 38 39 40 41 42 43 44 48 51 53 54 55 57 58 59 60 60 61 63 63 64 65 67 67 67 66 66 67 68 69 70 73 75 77 78 80 81 83 84 84 83 84 86 85 83 79 78 78 80 81 82 83 84
30 30 29 28 28 28 28 27 26 25 24 23 24 24 24 24 24 25 26 27 29 30 30 30 30 30 30 31 32 34 34 34 35 36 37 39 39 40 42 46 49 51 52 54 55 57 57 56 56 57 59 59 60 62 64 64 63 62 63 64 64 66 68 71 73 74 75 75 76 77 78 78 79 79 78 76 74 73 75 77 78 78 79 81 81
29 29 29 29 28 28 27 26 25 24 23 23 23 23 22 22 23 24 25 26 27 28 28 29 29 29 29 30 31 32 33 33 33 34 36 37 37 39 42 45 47 49 50 52 54 55 54 53 54 55 57 58 58 60 60 59 58 59 60 61 62 64 67 69 70 71 71 72 72 72 73 73 73 73 72 71 70 71 72 74 75 76 77 77 77
28 28 28 28 28 26 25 24 24 24 23 22 22 22 22 23 23 24 24 25 25 26 26 27 27 28 28 29 30 31 33 33 32 33 35 36 36 38 41 43 45 47 49 50 51 51 52 53 54 55 57 57 57 57 57 56 56 58 58 59 61 64 66 67 68 67 68 69 69 69 69 68 68 68 67 67 68 68 70 72 74 74 74 73 73
28 28 28 27 26 24 23 23 22 22 22 21 21 21 21 21 22 22 23 24 24 25 25 25 25 26 27 28 29 30 31 32 32 32 34 36 36 37 40 42 44 45 46 47 48 49 51 52 53 55 57 57 56 55 54 55 56 58 58 59 61 63 64 64 63 63 64 65 65 65 65 64 64 64 64 65 66 68 69 70 71 70 70 69 70
26 26 26 25 24 23 22 22 21 21 20 19 19 19 19 19 20 20 21 21 22 22 22 23 24 24 26 27 27 28 30 30 31 31 33 35 36 37 39 41 42 43 44 46 48 49 49 50 51 52 53 54 54 53 54 55 56 57 59 60 61 61 60 59 58 58 60 61 61 61 61 60 61 62 64 65 66 67 67 67 67 67 66 67 67
23 23 23 23 22 22 22 21 21 20 19 18 17 17 18 18 19 19 19 19 19 19 20 21 22 23 24 24 25 26 27 28 29 30 31 33 34 36 38 38 40 42 44 46 47 47 47 48 48 48 48 48 49 50 52 54 56 57 58 58 57 57 55 55 55 56 58 58 58 58 58 59 61 62 63 64 64 64 64 63 63 64 64 66 67
21 21 21 21 21 21 21 20 20 19 19 18 17 17 17 18 18 17 17 17 17 17 18 19 20 20 21 22 23 24 25 26 26 27 28 30 31 33 34 35 37 40 42 43 44 45 45 46 45 45 44 45 46 49 51 53 55 56 56 54 53 53 53 54 54 55 55 55 55 56 58 59 60 61 61 61 61 61 61 61 62 63 64 66 68
21 21 21 20 20 20 19 19 19 18 18 18 18 17 17 17 16 15 15 15 16 16 16 17 18 19 20 20 21 22 23 23 24 24 25 26 27 29 30 32 34 36 38 39 40 42 43 43 43 42 43 44 45 48 49 50 51 52 51 51 50 50 51 51 51 52 53 53 54 55 56 57 57 58 58 58 58 59 60 61 62 64 65 67 68
21 20 19 19 19 18 18 18 17 17 17 17 17 17 16 14 14 14 14 14 14 15 15 16 17 17 18 19 19 20 21 21 22 22 23 24 25 26 27 29 30 32 33 34 36 37 39 40 40 41 41 43 44 46 46 45 46 46 47 47 46 46 47 48 48 49 50 51 51 52 53 54 55 56 56 56 57 59 60 61 62 64 65 66 65
19 18 18 18 17 17 17 16 16 16 16 16 15 15 13 12 12 13 13 13 13 14 14 15 15 16 16 17 18 19 19 20 21 22 22 23 24 25 26 27 28 29 29 30 31 33 34 35 37 38 39 41 42 41 40 39 41 43 43 42 42 42 43 44 45 46 47 48 49 50 51 52 53 54 55 56 57 58 60 61 62 63 62 61 60
19 18 17 17 17 16 16 15 14 14 14 13 13 12 11 11 11 11 11 12 12 12 13 13 13 14 15 17 18 18 18 19 20 21 21 22 23 24 24 25 26 27 27 28 29 29 30 32 33 35 37 37 37 35 35 37 40 40 39 38 38 39 40 40 42 43 45 46 48 49 50 51 52 53 54 55 56 58 59 59 59 59 58 57 56
19 18 17 16 16 16 15 14 13 13 12 11 11 10 10 9 9 9 9 10 10 11 11 12 13 13 15 16 16 16 17 17 18 19 20 21 21 22 23 24 25 25 26 26 27 27 28 29 30 31 32 31 31 32 34 36 37 36 36 36 36 37 37 38 40 42 44 45 47 48 49 50 51 52 53 54 55 55 56 56 55 54 54 54 53
19 18 16 16 15 15 14 13 13 12 11 11 10 9 8 8 8 8 8 8 9 9 10 11 12 12 13 13 14 14 15 15 16 17 18 19 20 21 22 23 23 24 24 24 25 25 25 26 26 27 27 27 28 30 31 32 33 34 35 35 36 36 37 39 40 42 43 44 45 46 47 47 48 49 50 50 51 51 51 51 51 50 50 50 50
20 18 16 15 15 14 14 13 12 12 11 11 10 9 8 8 7 7 6 6 7 7 7 8 9 10 11 11 12 13 13 13 14 15 16 17 18 18 19 20 21 22 22 22 23 23 24 24 25 25 26 26 28 29 30 32 33 34 35 35 36 37 38 38 39 40 41 41 42 43 43 43 43 44 45 45 46 46 46 46 46 46 47 47 47
20 18 17 16 15 14 13 12 12 12 11 10 9 9 8 8 7 6 5 5 5 4 5 5 6 7 9 9 10 10 11 11 12 13 14 14 15 16 17 17 18 18 19 20 21 22 23 24 25 26 26 27 28 30 31 32 33 33 34 35 35 36 36 37 37 37 36 36 37 37 38 38 39 39 40 41 41 41 41 42 42 43 44 44 45
20 19 17 16 15 14 13 12 12 12 10 10 9 8 8 7 6 5 4 4 4 4 4 5 4 5 6 6 7 8 8 9 10 11 11 12 13 13 14 14 14 15 15 16 17 19 20 21 22 23 24 25 26 27 29 29 30 30 31 32 32 32 33 32 32 32 31 32 32 33 34 34 35 35 36 36 36 37 38 39 40 40 41 41 41
21 19 18 16 15 14 13 13 12 11 10 9 9 8 8 7 5 5 5 5 5 5 5 4 3 2 3 4 5 6 6 7 8 8 9 9 10 10 11 11 11 12 13 14 15 16 17 18 18 19 20 21 23 24 24 24 25 25 26 26 27 27 27 27 27 27 28 28 29 29 30 30 31 32 32 33 34 35 35 36 37 38 39 39 39
20 19 18 17 16 15 14 14 12 11 10 10 9 8 8 7 7 6 6 6 6 5 5 4 2 1 1 2 3 5 6 7 8 8 8 8 8 9 9 9 9 9 10 11 12 12 13 14 14 15 16 17 18 18 18 19 19 20 21 21 22 22 23 23 23 24 24 25 25 26 27 28 28 29 30 31 32 33 34 35 36 37 37 38 39
19 18 18 17 17 16 16 14 12 12 12 11 10 9 9 9 8 8 7 6 6 6 6 5 4 2 2 3 4 6 7 8 9 10 9 9 9 10 9 9 9 9 9 9 9 10 10 11 12 12 13 13 14 14 15 15 16 16 17 17 18 19 19 20 20 21 22 22 23 24 25 26 27 28 29 30 31 32 34 34 36 37 38 40 41
19 18 18 17 17 17 16 14 13 13 13 12 11 10 10 10 9 8 7 7 7 7 8 7 5 4 3 4 6 7 8 9 10 10 11 10 10 10 10 10 9 9 8 8 8 8 8 8 9 9 10 10 11 11 12 12 13 14 14 15 16 16 17 18 19 20 21 21 22 23 24 25 27 28 29 30 31 33 34 36 37 39 40 42 43
18 18 18 17 16 16 15 14 13 13 13 12 11 11 10 10 9 9 9 9 9 9 9 9 7 6 6 6 6 7 7 8 9 10 11 11 11 10 10 10 10 9 9 8 8 8 7 7 7 7 7 8 8 9 9 10 11 12 13 13 14 15 16 17 18 19 20 21 22 23 24 26 27 29 30 32 33 35 36 38 39 41 42 43 45
19 19 18 16 16 15 15 14 13 13 13 13 11 11 11 11 11 10 10 11 11 11 11 10 9 9 8 8 8 8 8 8 8 9 10 10 11 10 10 10 9 9 9 8 8 7 6 6 5 5 5 5 6 6 7 8 9 10 11 12 13 14 15 16 17 18 20 21 23 24 26 28 29 31 32 34 35 36 38 39 41 42 43 44 45
19 18 17 16 16 15 15 14 14 14 14 13 12 11 11 12 12 12 12 12 12 12 12 12 11 11 10 10 10 10 10 10 9 9 9 10 10 10 10 10 9 9 8 8 7 6 5 5 4 3 3 3 4 5 6 7 8 9 10 12 13 15 16 17 19 20 22 23 25 27 28 29 31 32 34 35 36 38 39 41 42 43 44 45 46
18 17 16 15 16 16 15 15 15 14 14 13 12 12 12 12 13 13 13 13 13 13 13 13 13 12 12 11 11 11 11 11 11 11 10 10 10 10 10 9 8 8 8 7 6 5 5 4 3 3 3 3 4 5 6 8 9 11 12 14 16 17 18 20 21 22 23 25 26 27 29 30 32 33 35 36 38 39 40 41 42 43 43 45 45
18 17 16 16 16 16 15 15 15 14 14 13 13 13 12 13 13 13 13 12 13 13 13 12 13 13 12 12 12 12 12 11 11 11 11 10 10 10 9 9 8 7 6 6 5 4 3 3 2 3 3 4 6 7 9 10 12 13 14 16 17 18 19 20 21 23 24 25 27 29 30 32 33 34 36 37 37 38 39 40 41 42 43 44 45
18 17 16 16 16 16 15 15 15 14 14 13 13 13 13 13 12 12 12 12 12 12 12 12 12 12 12 12 11 11 11 11 11 10 10 10 9 8 8 7 6 6 5 4 4 3 2 2 3 4 5 6 7 8 10 11 12 13 14 16 17 18 20 21 22 24 26 27 29 30 31 32 33 34 35 36 37 38 39 40 41 42 43 44 44
19 17 17 16 17 17 16 15 15 14 14 13 13 13 13 13 13 13 12 12 12 12 12 12 12 12 12 11 11 11 11 10 10 10 10 9 8 7 7 6 5 4 4 3 3 2 1 2 3 4 5 6 7 8 9 11 12 13 15 16 18 20 21 23 24 26 27 28 29 30 31 32 33 34 35 36 37 38 39 40 41 42 43 43 44
19 17 17 17 17 17 17 15 15 14 14 13 13 14 14 14 13 13 13 13 13 13 12 12 12 12 12 11 11 11 10 10 10 10 9 9 8 7 6 5 4 3 3 2 1 1 1 2 3 4 5 6 8 9 11 12 14 16 17 19 20 22 23 24 25 26 27 28 29 30 31 32 33 34 35 37 38 38 39 40 41 42 43 43 44
19 17 17 17 18 18 17 16 15 14 13 13 13 13 13 13 13 14 14 14 14 13 13 13 13 12 12 11 11 11 10 10 10 9 9 8 7 6 5 4 3 2 1 0 1 1 2 3 4 6 7 9 11 12 14 15 17 18 19 20 21 22 23 24 24 25 27 28 29 30 31 32 34 35 36 37 38 39 39 40 41 41 42 43 43
18 18 17 18 18 18 17 16 15 13 12 12 12 12 12 13 13 14 14 15 14 13 13 13 13 13 12 11 11 10 10 10 9 9 8 7 7 6 5 4 3 2 2 2 3 3 4 6 7 8 10 12 13 15 16 17 18 18 19 20 21 22 23 24 25 26 27 28 29 30 32 33 34 35 36 36 37 38 39 39 40 40 40 41 41
18 18 18 18 18 17 16 15 14 12 11 11 11 11 12 12 13 13 14 14 13 13 12 13 13 13 12 11 10 10 10 9 9 8 8 7 6 5 5 4 4 3 3 4 4 5 6 7 9 10 11 13 14 15 16 17 18 19 20 21 22 23 24 24 26 27 27 29 30 31 32 33 33 34 35 35 36 37 37 38 38 39 39 40 40
19 18 17 18 18 17 15 14 13 12 10 10 10 11 11 11 12 13 13 13 12 12 11 11 12 12 11 10 10 9 9 8 8 7 7 6 5 5 5 4 4 5 5 6 7 8 9 10 11 12 13 14 15 16 17 18 19 20 20 21 22 23 24 24 25 26 27 28 29 30 30 31 32 32 33 34 34 35 36 37 37 38 38 39 39
19 18 17 16 17 16 14 13 12 11 10 10 10 10 10 11 11 12 12 12 11 10 10 10 11 10 10 10 9 9 9 9 8 8 8 7 7 7 7 7 7 7 8 8 9 10 10 11 12 13 14 15 16 16 17 18 18 19 20 21 22 23 23 24 25 26 27 27 28 29 29 30 31 31 32 33 34 35 36 36 37 37 38 38 39
19 18 16 15 15 15 14 12 11 10 10 9 9 9 9 10 10 11 11 11 10 10 9 10 10 10 10 10 9 9 9 9 9 8 8 8 8 8 8 8 8 8 9 9 9 10 11 11 12 13 13 14 15 15 16 17 18 19 20 21 21 22 23 24 25 26 26 27 28 29 29 30 31 31 32 33 34 34 35 36 36 37 37 38 38
18 17 15 14 14 13 13 11 10 9 9 8 8 8 8 9 9 10 10 9 9 9 9 9 10 10 10 10 10 9 9 9 9 8 8 8 7 7 8 8 8 8 8 9 9 9 10 10 11 12 12 13 14 15 16 17 18 19 20 21 22 23 24 24 25 26 27 28 29 30 30 31 31 32 32 33 34 34 35 36 36 37 37 38 38
Wind_Direction
282 281 279 277 275 274 273 271 269 266 264 262 260 259 258 256 255 253 251 250 249 249 248 246 245 244 242 240 239 239 238 237 237 237 237 237 237 239 241 242 242 242 243 244 245 245 246 247 248 248 249 249 250 249 248 248 248 249 249 249 249 249 249 250 250 249 249 248 249 249 250 251 252 253 253 254 254 254 254 255 255 255 256 256 257
281 280 279 277 275 274 273 272 270 267 264 262 261 259 258 256 255 253 251 250 249 248 248 247 245 244 243 242 241 240 239 238 238 237 237 237 236 237 239 241 242 242 242 243 243 244 245 246 247 248 248 249 249 249 248 247 247 247 248 249 249 249 249 249 249 249 248 248 248 248 249 250 251 252 252 253 253 254 254 254 255 255 255 256 256
281 279 278 277 275 274 273 272 271 268 265 263 261 260 259 257 256 254 252 250 249 247 247 246 245 244 243 243 242 241 240 239 239 238 237 237 237 237 238 239 241 242 242 242 242 243 244 246 247 248 248 249 249 250 249 248 247 247 247 248 248 249 250 250 250 250 249 248 248 248 249 249 250 251 252 252 252 253 253 254 254 255 255 256 256
282 280 278 277 276 274 273 272 271 269 266 264 262 261 260 258 257 256 254 252 250 248 246 245 245 244 243 242 242 241 241 241 240 239 238 237 237 237 237 238 239 241 242 242 243 244 244 245 246 248 248 249 250 250 250 250 249 248 247 246 247 248 248 250 250 251 250 249 248 248 248 249 250 251 251 252 252 252 253 254 254 255 255 256 256
283 280 278 276 275 274 273 272 270 269 266 264 262 261 259 258 257 256 255 254 252 250 247 246 245 244 243 243 242 242 241 241 241 240 240 239 238 238 238 238 238 239 240 241 243 245 245 245 246 246 248 249 249 250 250 250 249 248 247 246 246 246 247 248 250 251 251 250 249 248 248 249 250 250 251 251 252 252 253 253 254 255 256 256 256
286 282 279 276 274 272 271 271 270 269 267 265 263 260 259 258 257 256 255 253 252 250 248 246 245 244 244 243 243 242 242 241 241 241 241 241 240 239 239 239 239 239 239 239 241 244 245 245 245 245 246 247 248 248 249 249 248 248 247 247 246 246 246 247 248 250 251 250 250 249 249 249 249 250 251 251 251 252 252 253 254 255 256 256 256
289 286 281 277 274 271 269 269 269 269 268 267 266 264 263 262 261 259 256 254 253 251 249 248 246 245 244 243 243 243 243 242 242 242 241 241 241 241 241 241 241 241 241 241 242 244 245 246 245 245 246 246 246 247 247 248 248 247 247 247 246 246 245 246 247 248 250 250 250 249 249 249 249 249 250 251 251 252 252 252 252 253 255 256 257
290 287 283 279 276 272 269 268 267 268 269 269 269 269 268 267 265 263 261 258 255 252 250 249 247 246 245 244 243 243 242 243 243 242 242 242 242 242 242 242 242 242 243 243 244 245 246 246 246 246 246 246 247 247 248 248 249 248 248 248 247 247 246 246 246 247 248 249 249 249 249 249 249 249 250 250 251 251 251 251 251 252 254 255 256
289 287 283 280 277 274 272 269 267 267 268 269 269 269 269 268 267 265 263 260 257 254 251 249 248 246 245 244 243 242 242 242 242 242 243 243 243 243 243 243 243 243 243 243 243 244 244 245 245 246 246 246 247 247 248 249 249 249 249 249 249 249 248 248 247 247 247 248 248 248 248 248 249 249 249 250 250 251 251 251 251 252 252 253 254
289 288 285 282 279 276 274 272 270 268 267 267 267 267 266 265 265 264 263 261 258 256 253 250 248 247 246 245 243 242 241 241 241 241 241 241 242 243 244 244 244 244 244 243 243 243 243 243 244 244 244 245 245 246 246 247 248 248 248 248 248 248 248 248 248 248 248 247 247 247 247 248 248 248 249 249 250 251 251 251 251 251 251 252 253
289 289 287 285 283 280 278 276 273 270 268 266 265 264 264 264 263 262 261 260 259 257 255 252 250 248 247 246 245 243 242 241 240 240 239 239 240 240 241 242 243 244 244 243 243 243 243 243 242 242 243 243 243 243 244 244 245 245 246 246 246 246 247 247 247 246 247 247 247 247 247 247 248 248 249 249 250 251 251 252 252 252 252 252 252
290 290 290 289 287 284 281 279 277 274 271 268 266 264 263 262 262 261 260 259 257 256 254 252 251 250 249 248 246 245 245 244 243 242 240 239 239 239 239 239 240 240 240 241 241 241 241 241 241 241 242 242 242 242 242 242 242 243 243 244 244 244 245 245 246 246 246 246 246 247 247 247 247 248 248 249 250 251 252 252 252 252 252 252 252
293 292 291 291 290 288 286 283 281 277 273 269 267 265 262 261 260 260 259 257 256 253 251 249 250 250 250 249 248 247 247 246 245 244 242 241 239 238 237 237 237 238 238 238 238 238 239 239 239 240 240 241 241 241 241 241 241 241 242 242 243 243 244 244 245 245 245 246 246 247 247 248 248 248 248 249 250 251 252 252 252 252 252 252 252
300 297 295 293 292 292 290 287 284 279 274 270 265 262 260 259 258 258 258 257 255 253 251 249 249 249 249 248 248 247 247 246 246 244 242 241 239 238 237 238 238 237 237 236 237 237 237 237 238 238 238 239 240 241 241 241 241 241 241 241 242 243 243 244 244 245 245 246 246 246 247 248 249 249 249 249 250 251 252 252 252 252 252 252 251
305 303 299 296 295 293 291 287 283 278 273 268 264 261 259 258 257 257 258 258 258 258 255 252 250 248 247 247 246 245 245 245 245 245 243 241 239 237 237 238 239 239 238 237 237 237 236 236 236 236 237 237 238 239 240 240 240 240 240 241 241 242 243 243 244 244 244 245 245 246 247 248 248 249 249 249 250 252 253 253 252 251 250 250 250
307 305 302 299 296 293 290 288 285 282 277 271 268 266 264 262 260 259 259 260 260 259 258 255 253 250 249 248 248 247 246 245 244 244 243 241 240 238 236 237 238 239 239 239 239 238 237 237 236 237 237 237 237 238 239 239 239 239 240 240 240 241 242 242 243 243 244 244 245 246 247 248 248 248 249 250 251 252 252 251 249 248 248 249 249
307 304 303 301 298 295 294 294 292 289 285 279 275 272 270 266 263 260 259 258 258 258 258 258 257 256 254 252 252 251 250 247 245 244 243 241 239 238 237 236 236 237 238 239 239 240 240 239 239 239 239 239 238 238 239 239 239 239 239 239 239 240 241 241 242 242 243 244 244 245 246 247 247 248 249 250 251 250 249 248 248 248 248 248 248
307 304 303 302 301 300 300 298 297 293 288 282 278 275 272 268 264 261 259 258 257 257 257 257 257 256 255 254 253 254 253 250 248 247 245 243 240 238 237 237 237 237 237 238 238 239 240 240 240 241 241 241 240 239 240 240 240 240 239 239 239 239 240 240 241 242 243 243 244 244 245 246 247 248 248 248 248 248 248 248 248 248 248 248 249
308 305 304 304 305 305 302 299 296 293 289 284 280 277 273 270 267 265 263 261 260 258 256 255 255 254 253 252 251 252 252 250 248 247 247 245 242 239 239 238 238 238 238 238 239 239 239 239 239 240 241 242 241 241 241 241 241 241 240 239 239 239 240 240 241 242 243 244 244 244 245 245 246 247 247 247 247 247 247 247 247 248 248 249 249
310 308 307 307 307 306 301 297 294 291 289 287 284 281 278 275 272 269 265 263 261 260 259 258 256 254 253 251 250 249 250 249 246 245 245 244 242 240 239 238 238 238 239 240 240 239 239 239 238 238 240 242 242 242 242 241 240 241 240 239 239 240 240 241 242 242 243 244 245 245 246 246 246 247 247 247 246 246 246 246 247 249 249 249 250
313 310 308 307 306 304 300 297 294 292 291 289 288 286 282 277 273 269 266 264 262 261 260 258 256 254 252 251 249 248 248 247 245 243 242 242 240 239 238 238 238 238 238 239 239 239 239 240 239 239 239 240 241 241 241 241 241 241 240 240 240 241 242 243 243 243 243 244 245 246 246 246 246 246 246 246 246 246 247 247 248 249 249 250 249
313 309 306 305 303 302 299 298 296 295 294 292 290 287 282 278 274 271 268 266 263 260 257 255 255 254 254 253 252 251 249 248 245 243 241 239 238 237 237 236 236 236 237 238 239 240 240 240 240 240 239 239 238 238 238 239 240 241 241 241 242 243 243 243 243 242 242 243 243 244 244 244 244 244 245 245 246 247 248 248 249 249 249 249 249
311 307 305 304 303 302 301 300 299 298 297 294 291 287 282 279 277 275 272 268 264 262 259 258 258 257 257 257 256 254 253 250 246 243 241 239 237 236 235 234 233 234 235 236 238 240 241 241 241 240 239 237 236 235 235 236 238 240 241 242 242 242 242 241 241 241 242 242 242 242 242 242 243 244 245 246 247 248 248 248 248 248 248 249 249
312 309 308 307 307 306 304 302 300 299 297 295 292 288 286 284 281 278 274 271 268 267 265 264 262 260 258 257 257 256 254 253 250 247 244 241 239 238 236 234 233 233 234 235 236 238 239 240 240 239 238 236 235 235 235 236 237 239 240 240 240 240 241 240 240 240 240 240 241 241 241 242 243 245 246 246 247 247 247 247 247 247 248 249 250
317 315 313 313 311 309 307 304 302 300 298 296 294 292 291 289 285 282 278 277 274 271 268 265 262 261 259 258 257 256 255 254 252 250 247 244 242 240 238 236 235 234 234 234 235 236 237 238 239 238 237 236 236 236 237 238 239 239 239 239 239 240 240 240 239 239 239 240 240 241 242 242 243 244 245 245 245 246 246 246 247 247 248 250 252
322 319 318 316 314 312 311 309 307 304 300 298 297 297 296 292 287 285 283 280 277 273 270 266 264 262 260 258 256 254 253 252 251 250 248 246 243 240 239 238 237 236 235 235 235 235 236 237 237 237 236 236 237 238 240 240 241 240 240 240 240 240 239 239 239 239 239 240 240 241 241 241 242 243 243 243 244 245 246 247 248 249 251 253 254
327 325 323 321 319 317 315 314 311 308 304 303 303 302 299 295 290 287 283 278 274 271 269 267 265 262 258 255 253 250 248 247 247 246 246 245 243 241 239 239 238 238 236 235 235 235 235 236 236 236 237 237 238 239 239 239 240 241 241 241 241 240 240 240 239 239 239 240 240 240 240 240 241 241 242 243 244 245 246 248 250 251 253 254 254
334 332 329 326 324 322 321 320 318 315 313 312 311 308 303 300 295 289 283 278 275 272 270 268 265 260 256 253 250 247 244 242 242 241 241 241 240 238 237 236 236 236 236 235 234 235 235 235 236 238 239 240 240 240 238 239 241 243 244 244 243 242 241 240 239 239 239 239 239 239 240 240 241 242 243 244 245 247 248 250 252 253 253 254 254
339 337 335 332 330 329 329 328 327 325 324 322 320 319 315 310 302 296 293 290 286 280 275 268 262 257 253 250 248 245 241 239 237 235 235 234 233 233 232 231 231 231 231 232 231 231 232 233 234 236 237 237 238 238 238 240 241 242 242 242 241 240 239 238 237 238 238 239 239 240 241 242 242 243 244 245 247 248 249 251 252 253 253 254 255
343 342 342 340 339 339 338 336 334 333 332 331 330 328 326 320 315 314 313 307 298 291 280 270 262 258 253 248 245 242 237 235 232 229 227 227 226 226 226 226 226 226 226 227 227 226 226 226 226 226 226 226 228 230 231 232 234 235 236 238 239 239 238 238 238 239 239 240 241 242 243 244 244 245 245 246 247 248 249 251 252 253 254 254 255
347 348 350 350 349 347 344 342 341 340 339 338 337 336 334 333 332 334 331 323 319 315 302 286 275 265 255 246 239 235 230 227 225 221 219 218 218 218 219 219 220 220 220 221 222 222 222 222 222 222 222 222 224 225 227 229 231 232 234 236 237 239 240 240 241 241 242 243 244 244 244 245 245 246 246 247 248 250 251 252 253 253 254 255 256
352 354 356 356 355 353 352 351 348 345 344 343 344 344 344 343 343 346 347 350 354 351 335 319 300 275 255 238 227 220 215 212 211 208 206 205 206 207 209 210 211 211 212 214 216 217 219 220 221 221 222 223 224 226 227 228 230 231 233 234 236 237 239 241 242 243 244 244 244 244 245 245 246 247 248 249 250 251 252 253 255 256 257 258 259
357 359 0 0 0 0 359 356 352 351 352 351 350 352 351 349 353 1 8 13 13 7 358 346 325 286 248 224 207 198 191 187 185 185 185 186 188 190 194 197 199 201 202 204 207 209 212 214 216 217 218 220 222 223 225 226 228 229 231 233 235 236 238 240 241 242 243 243 244 244 245 246 247 248 250 251 252 254 255 257 258 259 260 260 261
360 3 3 4 5 6 3 0 360 1 2 0 359 0 1 3 9 14 18 20 19 18 21 23 18 357 209 186 174 170 166 160 157 157 157 158 160 162 166 171 176 181 186 191 195 199 203 206 208 211 213 216 219 221 223 224 226 228 230 232 235 237 239 240 242 243 244 245 246 247 247 249 250 251 253 255 256 258 259 259 260 261 262 262 263
3 6 7 8 10 9 7 7 9 8 8 9 10 11 12 15 18 20 22 23 24 31 42 49 53 71 114 135 140 148 150 147 144 143 141 141 142 142 143 147 151 157 164 172 179 184 190 195 200 203 208 211 214 217 220 223 225 228 230 232 234 237 239 241 243 245 246 247 248 249 251 252 254 255 257 258 259 260 260 261 262 263 263 264 264
6 8 11 12 13 12 10 10 12 12 13 15 17 17 18 21 25 29 31 32 34 42 51 56 60 71 93 113 124 135 141 142 140 138 137 136 136 135 136 137 137 139 144 149 156 165 172 181 190 197 202 207 211 215 219 223 226 229 231 233 235 237 240 242 244 246 248 249 251 252 254 256 257 258 259 260 260 261 262 262 263 263 264 265 266
9 11 13 16 16 13 11 12 17 19 19 19 21 24 27 31 36 40 41 43 45 50 52 54 57 63 74 90 103 115 125 131 133 133 133 132 132 132 132 132 131 131 132 135 138 145 152 161 173 183 192 199 206 212 217 222 227 231 235 237 240 241 244 246 248 250 252 253 254 256 257 258 259 260 260 260 261 262 262 263 265 266 267 268 269
11 12 14 17 17 14 12 17 24 26 24 23 26 31 36 38 41 43 45 49 52 54 55 57 58 61 66 75 82 90 97 105 112 117 120 122 122 122 123 123 122 122 122 123 127 130 135 145 156 169 184 195 204 214 222 228 234 239 242 244 246 248 249 251 252 253 254 255 255 256 257 257 258 259 260 261 263 264 266 267 267 268 269 269 270
13 12 13 17 17 15 15 21 28 30 27 26 30 35 40 43 43 44 46 49 52 55 57 60 62 63 66 71 76 80 82 85 89 94 100 105 107 108 108 108 109 110 109 109 110 112 117 127 139 156 178 195 209 221 230 236 241 243 245 245 246 247 248 248 249 250 251 253 254 256 258 260 261 262 264 265 266 266 267 268 268 269 270 270 271
12 12 15 18 19 17 18 22 28 30 29 29 33 38 42 45 46 45 46 48 51 54 58 61 64 65 67 69 73 76 78 79 81 83 86 90 93 95 95 94 96 99 101 101 101 103 107 116 133 157 182 202 218 227 233 237 239 240 241 242 244 245 247 249 251 253 256 258 260 261 263 264 264 265 265 266 266 267 268 269 270 270 271 271 272
11 12 16 21 22 20 19 23 27 29 30 33 36 40 44 46 48 50 50 53 55 58 60 64 66 68 68 70 73 77 79 80 82 82 81 81 83 85 87 86 86 89 93 97 101 105 117 132 161 188 205 218 227 233 237 240 243 245 247 249 252 254 257 259 260 261 262 262 262 263 263 264 264 265 266 267 269 270 270 271 272 273 273 274 275
9 11 16 23 24 21 19 21 25 29 32 35 37 40 44 47 51 52 54 56 58 60 63 66 68 69 69 70 72 76 79 80 82 83 82 80 79 81 85 88 90 93 97 98 102 112 138 183 208 219 225 231 237 243 247 251 254 256 258 260 261 261 261 261 261 261 261 261 262 262 264 265 267 268 270 271 272 273 273 274 275 276 277 278 278
10 11 17 24 26 22 18 19 23 27 32 36 38 39 42 48 52 55 57 59 61 63 65 68 69 70 70 70 71 74 77 79 79 79 80 80 79 77 78 79 81 86 91 96 103 125 179 219 234 240 245 249 252 255 257 258 258 258 258 257 257 257 257 257 258 259 260 262 264 266 268 269 270 272 273 274 274 276 277 278 279 280 281 281 282
11 13 18 25 27 24 19 18 20 26 32 38 40 41 45 51 56 59 61 63 63 65 68 70 71 71 71 71 70 71 73 75 76 76 76 77 77 75 74 73 72 72 78 89 108 165 230 249 261 263 265 264 261 259 256 254 254 253 253 254 254 256 257 259 261 263 265 267 269 270 271 273 274 275 277 278 279 281 281 282 283 284 284 285 285
12 15 20 25 28 26 22 20 21 27 34 42 46 48 52 57 60 62 64 64 64 65 67 68 70 70 70 71 70 70 69 70 71 70 70 70 72 72 73 72 73 72 64 37 274 267 265 264 266 264 262 259 257 256 254 254 255 255 256 258 260 263 265 266 268 270 271 273 274 276 277 278 279 280 282 283 284 284 285 285 286 286 286 286 286
14 17 23 27 29 29 26 25 26 31 38 45 49 53 59 63 65 66 66 65 64 64 65 66 66 65 64 64 63 63 63 61 59 58 55 52 49 47 43 36 28 14 350 319 294 277 271 264 261 259 258 258 258 258 259 261 262 264 266 268 270 272 273 275 276 277 278 279 280 280 281 282 283 284 285 285 286 286 287 287 287 287 287 287 286
15 19 25 29 31 31 30 29 30 35 44 50 53 59 65 69 71 71 70 68 67 65 65 66 65 63 60 58 56 56 55 52 50 47 43 39 33 26 16 7 356 338 320 304 290 281 276 272 269 270 269 270 270 272 272 274 275 276 277 278 279 279 280 280 281 282 282 283 283 284 284 285 286 287 287 287 288 288 288 288 288 288 288 287 287
15 21 27 32 33 33 33 32 33 38 47 53 58 65 71 73 74 74 73 71 68 66 65 65 65 63 59 55 52 50 47 45 41 37 30 23 16 5 353 339 327 314 305 298 293 290 288 287 285 284 284 283 283 283 283 283 284 284 284 285 285 285 285 285 285 285 286 286 286 287 288 288 288 289 289 290 289 289 289 289 289 289 289 289 289
15 20 28 34 35 35 34 34 36 41 48 54 61 69 74 74 73 73 72 71 69 67 65 64 63 60 56 50 45 41 37 32 27 21 14 6 358 349 340 330 322 315 308 303 300 296 294 292 289 288 287 287 287 288 288 289 289 290 290 290 290 290 289 290 289 289 290 290 290 290 291 291 291 291 291 291 291 291 291 291 291 291 291 291 290
14 19 27 33 37 38 37 37 40 46 51 56 62 69 72 73 72 72 71 70 68 64 62 60 57 53 49 43 37 32 27 21 15 10 3 355 348 340 333 325 319 314 309 305 302 299 296 295 294 293 294 294 295 296 296 296 296 296 296 295 295 295 294 294 294 294 294 294 294 295 295 294 294 294 293 293 294 294 294 294 294 294 293 293 292
12 17 24 31 37 40 39 40 45 51 55 59 64 67 67 69 73 72 70 67 63 57 53 50 47 43 38 33 27 22 18 13 8 3 358 350 343 336 330 324 321 318 315 313 311 309 307 306 306 306 306 306 305 305 305 304 303 303 302 301 300 300 300 299 299 299 299 299 298 298 298 297 297 298 298 298 298 297 297 297 296 296 295 294 294
Height
9962 9960 9959 9959 9958 9956 9956 9957 9958 9959 9959 9960 9960 9961 9962 9964 9965 9966 9968 9970 9973 9975 9977 9981 9984 9988 9992 9996 10000 10003 10007 10010 10015 10020 10027 10033 10036 10039 10041 10045 10051 10057 10061 10064 10069 10072 10076 10080 10085 10090 10094 10097 10103 10112 10120 10126 10128 10130 10133 10136 10142 10147 10150 10153 10159 10166 10174 10180 10183 10185 10185 10185 10187 10189 10192 10197 10201 10205 10209 10213 10215 10217 10219 10221 10224
9954 9952 9951 9950 9949 9948 9947 9948 9949 9950 9950 9950 9951 9951 9953 9954 9955 9956 9958 9960 9962 9965 9967 9970 9974 9977 9981 9984 9988 9992 9995 9999 10002 10007 10012 10018 10022 10025 10028 10031 10036 10041 10045 10049 10054 10057 10060 10065 10070 10074 10078 10082 10087 10094 10102 10110 10115 10118 10120 10122 10126 10131 10135 10138 10141 10148 10157 10165 10167 10170 10171 10172 10174 10175 10177 10182 10186 10190 10194 10198 10201 10203 10204 10206 10208
9945 9944 9943 9941 9941 9940 9939 9939 9940 9940 9941 9941 9941 9942 9943 9944 9946 9947 9948 9950 9952 9954 9957 9960 9963 9966 9969 9972 9976 9980 9983 9987 9991 9995 9999 10003 10007 10011 10014 10017 10021 10026 10030 10034 10038 10041 10045 10050 10056 10060 10062 10066 10072 10078 10085 10094 10101 10106 10110 10110 10112 10116 10119 10122 10124 10130 10141 10149 10153 10155 10157 10159 10161 10161 10163 10168 10172 10176 10180 10183 10186 10188 10190 10192 10194
9938 9936 9935 9933 9932 9932 9931 9931 9930 9930 9931 9932 9932 9933 9934 9935 9936 9938 9940 9942 9943 9945 9947 9950 9952 9955 9958 9961 9964 9968 9972 9975 9979 9983 9987 9990 9994 9997 10001 10004 10009 10012 10016 10020 10023 10027 10033 10039 10044 10046 10047 10052 10059 10065 10070 10077 10085 10091 10096 10098 10099 10102 10104 10106 10107 10113 10123 10132 10137 10140 10142 10144 10147 10148 10151 10155 10159 10162 10166 10169 10172 10174 10176 10179 10181
9930 9928 9927 9925 9924 9924 9923 9922 9922 9921 9922 9923 9923 9924 9925 9926 9927 9929 9930 9933 9935 9936 9939 9941 9943 9946 9948 9951 9954 9957 9961 9964 9968 9972 9976 9979 9982 9985 9988 9992 9996 10000 10004 10007 10009 10013 10020 10027 10032 10033 10035 10039 10046 10051 10056 10062 10067 10073 10078 10082 10085 10087 10089 10091 10092 10095 10104 10115 10121 10125 10127 10130 10133 10136 10138 10141 10143 10148 10153 10156 10157 10159 10162 10165 10168
9922 9921 9919 9918 9916 9916 9915 9914 9913 9913 9914 9914 9915 9916 9917 9917 9919 9920 9922 9923 9925 9927 9930 9932 9934 9937 9939 9942 9944 9947 9950 9954 9958 9961 9965 9968 9971 9974 9977 9980 9984 9988 9992 9995 9997 10001 10007 10013 10018 10020 10023 10028 10033 10036 10040 10044 10050 10056 10061 10066 10070 10072 10074 10077 10078 10080 10087 10097 10104 10109 10113 10116 10119 10122 10124 10125 10128 10135 10141 10143 10144 10144 10146 10150 10154
9915 9914 9913 9911 9910 9909 9908 9906 9905 9905 9906 9906 9907 9908 9909 9910 9911 9912 9914 9915 9916 9918 9921 9923 9926 9928 9930 9933 9935 9938 9940 9944 9947 9951 9954 9957 9960 9963 9967 9970 9975 9979 9982 9986 9989 9992 9996 10001 10004 10007 10010 10015 10019 10021 10023 10028 10034 10040 10046 10049 10052 10055 10059 10063 10065 10066 10070 10079 10088 10095 10099 10101 10103 10106 10108 10110 10115 10122 10127 10127 10127 10128 10130 10136 10142
9909 9908 9906 9905 9903 9902 9901 9900 9898 9898 9898 9899 9900 9901 9902 9903 9904 9905 9906 9907 9909 9911 9913 9915 9917 9919 9921 9924 9926 9929 9931 9934 9937 9939 9942 9946 9949 9953 9957 9961 9965 9969 9973 9977 9980 9983 9986 9989 9992 9994 9998 10002 10006 10008 10010 10014 10020 10026 10032 10035 10037 10041 10045 10049 10051 10053 10056 10063 10072 10079 10082 10085 10088 10091 10094 10098 10103 10107 10107 10106 10109 10115 10120 10125 10129
9903 9902 9900 9899 9897 9896 9895 9893 9892 9892 9892 9892 9893 9894 9895 9896 9896 9898 9899 9900 9901 9902 9904 9906 9908 9910 9912 9914 9917 9920 9922 9924 9927 9929 9932 9935 9939 9943 9946 9950 9954 9958 9962 9966 9968 9971 9974 9977 9980 9983 9986 9991 9994 9996 9998 10003 10008 10014 10019 10023 10025 10028 10031 10035 10038 10040 10043 10049 10056 10063 10067 10071 10074 10077 10080 10085 10087 10086 10085 10089 10097 10105 10110 10112 10114
9897 9895 9894 9893 9891 9890 9889 9888 9887 9886 9886 9886 9887 9887 9888 9889 9890 9891 9891 9892 9893 9895 9896 9898 9899 9900 9902 9905 9907 9910 9912 9914 9916 9919 9922 9926 9930 9933 9936 9940 9943 9947 9950 9953 9956 9958 9960 9964 9968 9971 9974 9978 9982 9985 9988 9992 9998 10003 10007 10010 10013 10015 10018 10021 10025 10028 10030 10035 10041 10047 10052 10057 10060 10063 10067 10069 10069 10067 10069 10076 10085 10091 10095 10097 10098
9891 9890 9888 9887 9886 9885 9884 9883 9882 9881 9881 9880 9880 9881 9882 9882 9883 9884 9885 9886 9887 9888 9889 9890 9891 9892 9894 9896 9898 9900 9901 9903 9906 9909 9913 9917 9921 9924 9927 9930 9933 9936 9938 9941 9943 9945 9948 9951 9955 9958 9961 9965 9969 9972 9976 9980 9985 9990 9993 9997 10001 10004 10005 10008 10012 10015 10018 10022 10026 10032 10038 10043 10046 10050 10053 10055 10053 10052 10055 10063 10071 10076 10081 10083 10085
9887 9884 9883 9881 9880 9880 9879 9878 9878 9877 9876 9875 9875 9875 9876 9876 9877 9878 9878 9879 9881 9882 9883 9883 9883 9884 9886 9887 9889 9890 9892 9893 9896 9900 9904 9908 9912 9915 9918 9920 9922 9924 9926 9929 9931 9933 9935 9939 9943 9946 9950 9953 9956 9960 9964 9969 9973 9977 9980 9984 9987 9990 9993 9997 10000 10003 10006 10009 10013 10019 10025 10029 10033 10037 10041 10041 10038 10037 10042 10050 10058 10063 10067 10070 10073
9882 9880 9878 9876 9874 9874 9873 9873 9873 9872 9872 9870 9870 9870 9870 9870 9870 9870 9871 9872 9874 9875 9876 9876 9877 9878 9879 9880 9881 9883 9884 9885 9888 9892 9896 9900 9902 9905 9908 9909 9911 9913 9915 9917 9919 9922 9925 9928 9932 9936 9939 9942 9946 9950 9954 9958 9961 9965 9969 9972 9975 9979 9983 9986 9989 9992 9995 9998 10002 10008 10012 10016 10021 10026 10029 10027 10024 10024 10030 10039 10045 10050 10054 10057 10060
9877 9875 9873 9871 9869 9869 9868 9868 9867 9867 9866 9866 9865 9864 9864 9863 9863 9863 9864 9865 9866 9867 9869 9871 9872 9873 9874 9874 9875 9876 9876 9878 9881 9885 9888 9890 9893 9896 9899 9900 9901 9903 9904 9907 9909 9912 9915 9919 9922 9927 9929 9933 9937 9940 9943 9947 9951 9955 9959 9962 9966 9969 9972 9975 9977 9980 9983 9987 9992 9996 9999 10003 10008 10014 10015 10013 10011 10014 10021 10029 10035 10039 10042 10043 10045
9871 9870 9869 9867 9865 9864 9863 9862 9861 9861 9861 9860 9860 9859 9859 9858 9858 9857 9858 9858 9859 9861 9862 9864 9866 9867 9868 9868 9869 9869 9870 9872 9875 9877 9880 9882 9884 9888 9891 9891 9892 9893 9895 9898 9900 9903 9906 9909 9913 9917 9920 9924 9928 9930 9933 9937 9941 9945 9950 9953 9956 9959 9961 9964 9966 9969 9972 9976 9980 9982 9985 9990 9996 10000 10000 9999 10001 10007 10014 10020 10024 10027 10027 10028 10030
9867 9865 9864 9862 9861 9859 9857 9857 9856 9856 9855 9855 9854 9854 9854 9854 9853 9853 9853 9853 9853 9854 9855 9856 9858 9860 9861 9862 9862 9863 9864 9867 9869 9870 9872 9874 9876 9880 9882 9883 9882 9883 9885 9888 9890 9892 9895 9900 9904 9908 9911 9915 9918 9921 9923 9926 9931 9936 9940 9943 9946 9949 9951 9953 9955 9958 9962 9965 9968 9971 9975 9980 9984 9986 9987 9990 9996 10001 10005 10007 10009 10011 10013 10015 10017
9863 9860 9858 9857 9855 9854 9853 9852 9851 9851 9851 9850 9850 9849 9849 9849 9849 9848 9848 9847 9847 9848 9848 9849 9851 9852 9854 9855 9855 9855 9857 9859 9861 9863 9864 9866 9868 9871 9873 9873 9873 9874 9876 9878 9880 9883 9887 9891 9896 9899 9901 9905 9908 9910 9913 9917 9923 9927 9930 9933 9936 9939 9940 9942 9944 9948 9951 9955 9959 9963 9967 9970 9973 9975 9979 9984 9988 9990 9991 9993 9995 9998 10001 10003 10005
9859 9856 9854 9852 9851 9850 9849 9848 9847 9846 9845 9845 9845 9844 9844 9844 9843 9843 9842 9842 9842 9843 9843 9844 9845 9846 9847 9848 9849 9849 9850 9852 9854 9855 9856 9858 9860 9862 9863 9863 9865 9866 9868 9870 9872 9876 9880 9884 9887 9890 9892 9894 9898 9901 9904 9909 9914 9918 9920 9923 9926 9928 9929 9931 9934 9939 9943 9946 9950 9953 9957 9961 9963 9967 9971 9973 9976 9978 9980 9982 9984 9986 9989 9991 9994
9855 9852 9850 9848 9847 9846 9845 9843 9842 9841 9840 9840 9840 9840 9839 9838 9838 9837 9837 9837 9837 9838 9838 9840 9841 9841 9842 9843 9843 9844 9844 9845 9847 9849 9849 9850 9853 9854 9855 9856 9857 9858 9860 9863 9866 9870 9874 9876 9879 9881 9883 9885 9889 9893 9897 9901 9905 9907 9910 9913 9915 9917 9919 9921 9926 9931 9935 9937 9941 9944 9948 9951 9954 9957 9960 9962 9965 9968 9969 9971 9972 9975 9978 9982 9985
9851 9849 9847 9845 9844 9843 9841 9839 9838 9837 9836 9836 9835 9835 9834 9833 9833 9832 9832 9832 9832 9833 9834 9835 9835 9836 9837 9837 9838 9839 9839 9840 9842 9843 9843 9844 9846 9848 9848 9849 9850 9852 9855 9858 9860 9863 9866 9868 9872 9874 9876 9879 9883 9887 9890 9893 9896 9899 9901 9903 9905 9907 9910 9914 9920 9925 9927 9930 9933 9936 9940 9943 9945 9947 9949 9951 9954 9956 9957 9960 9963 9966 9969 9972 9975
9849 9846 9844 9842 9840 9838 9836 9835 9834 9833 9833 9833 9832 9831 9830 9829 9828 9828 9828 9828 9829 9829 9829 9830 9830 9831 9831 9832 9833 9833 9833 9834 9836 9837 9838 9839 9840 9841 9842 9843 9845 9847 9849 9851 9853 9855 9858 9861 9864 9867 9870 9874 9878 9881 9883 9885 9888 9891 9893 9895 9897 9901 9906 9911 9916 9919 9920 9923 9926 9928 9932 9934 9936 9937 9939 9941 9943 9946 9949 9953 9955 9957 9960 9962 9964
9846 9843 9841 9839 9837 9835 9833 9832 9831 9831 9830 9829 9829 9828 9826 9825 9825 9825 9825 9825 9825 9825 9825 9825 9825 9826 9826 9826 9827 9827 9828 9829 9829 9830 9831 9833 9834 9835 9837 9839 9841 9842 9843 9844 9846 9849 9852 9855 9858 9861 9865 9869 9872 9874 9876 9878 9881 9883 9885 9888 9893 9897 9902 9906 9909 9911 9912 9915 9918 9921 9923 9925 9926 9927 9929 9932 9935 9939 9942 9944 9946 9948 9950 9952 9953
9842 9840 9838 9836 9834 9832 9831 9829 9828 9828 9827 9826 9825 9824 9823 9822 9822 9822 9822 9822 9821 9821 9821 9821 9821 9821 9821 9822 9822 9822 9822 9823 9824 9825 9826 9827 9829 9830 9832 9834 9835 9836 9837 9839 9841 9843 9846 9848 9852 9855 9859 9862 9865 9867 9869 9871 9874 9876 9879 9884 9888 9892 9895 9898 9900 9903 9905 9908 9911 9913 9914 9916 9918 9920 9922 9925 9929 9931 9934 9936 9937 9939 9940 9941 9943
9839 9837 9835 9833 9831 9830 9829 9827 9826 9825 9824 9823 9822 9821 9820 9820 9820 9819 9819 9818 9818 9817 9817 9817 9817 9817 9817 9818 9818 9818 9818 9818 9819 9820 9821 9822 9824 9825 9827 9829 9830 9831 9833 9835 9837 9839 9840 9843 9846 9850 9853 9855 9858 9860 9862 9865 9868 9871 9875 9878 9882 9885 9888 9890 9893 9896 9898 9900 9903 9905 9907 9910 9912 9914 9916 9919 9921 9923 9924 9926 9928 9929 9930 9932 9934
9837 9835 9833 9831 9829 9827 9826 9825 9824 9823 9822 9820 9819 9818 9818 9818 9817 9816 9816 9815 9815 9815 9815 9814 9814 9814 9814 9814 9814 9814 9814 9815 9816 9816 9817 9818 9819 9821 9823 9824 9826 9827 9829 9831 9833 9835 9837 9839 9842 9845 9847 9850 9851 9854 9857 9861 9865 9867 9870 9872 9876 9879 9881 9884 9887 9889 9891 9894 9897 9899 9901 9903 9905 9907 9910 9912 9913 9914 9915 9917 9918 9920 9921 9923 9926
9835 9833 9831 9829 9827 9825 9824 9823 9822 9821 9819 9818 9817 9817 9816 9816 9815 9814 9814 9813 9813 9812 9812 9812 9812 9812 9811 9811 9811 9811 9812 9812 9813 9813 9814 9815 9816 9817 9819 9820 9822 9824 9826 9827 9829 9831 9833 9836 9838 9840 9843 9844 9846 9850 9855 9859 9861 9862 9864 9868 9871 9874 9876 9878 9881 9883 9886 9889 9891 9893 9895 9897 9899 9901 9902 9903 9905 9906 9907 9908 9910 9911 9914 9916 9919
9833 9831 9829 9827 9825 9823 9822 9821 9820 9819 9817 9817 9816 9815 9814 9814 9813 9813 9812 9811 9811 9810 9810 9810 9810 9809 9809 9808 9809 9809 9809 9810 9810 9811 9811 9812 9813 9814 9816 9817 9819 9820 9822 9824 9826 9828 9830 9832 9834 9836 9838 9840 9844 9848 9852 9854 9855 9856 9860 9864 9867 9869 9871 9874 9876 9878 9880 9883 9885 9887 9889 9890 9892 9893 9894 9895 9897 9898 9899 9900 9902 9904 9906 9908 9911
9831 9830 9828 9825 9823 9822 9820 9819 9818 9817 9816 9815 9815 9814 9813 9812 9812 9811 9810 9810 9809 9809 9808 9808 9807 9807 9807 9806 9806 9807 9807 9807 9808 9808 9809 9810 9811 9812 9813 9815 9816 9817 9819 9821 9822 9824 9826 9828 9830 9832 9835 9838 9842 9845 9847 9848 9850 9853 9856 9859 9861 9864 9866 9869 9871 9873 9875 9877 9879 9880 9882 9883 9884 9886 9887 9888 9889 9890 9892 9893 9895 9897 9899 9901 9903
9830 9828 9826 9824 9822 9820 9819 9818 9816 9815 9814 9814 9813 9812 9811 9811 9810 9809 9809 9808 9807 9807 9807 9806 9806 9805 9805 9804 9804 9804 9805 9805 9806 9806 9807 9808 9809 9810 9811 9812 9813 9815 9816 9818 9820 9822 9824 9826 9828 9830 9833 9836 9838 9840 9842 9845 9847 9849 9850 9852 9855 9858 9860 9862 9864 9866 9868 9870 9872 9873 9874 9876 9878 9879 9880 9881 9883 9884 9885 9887 9888 9890 9891 9893 9895
9829 9827 9825 9823 9821 9819 9818 9816 9815 9814 9813 9812 9811 9811 9810 9809 9809 9808 9807 9806 9806 9806 9805 9805 9804 9803 9803 9803 9802 9802 9803 9803 9804 9805 9805 9806 9807 9808 9809 9810 9812 9813 9815 9816 9817 9819 9821 9822 9824 9826 9829 9831 9833 9835 9838 9840 9842 9843 9845 9847 9850 9852 9854 9856 9858 9860 9862 9864 9865 9867 9868 9870 9871 9873 9874 9875 9876 9878 9879 9880 9882 9883 9884 9885 9887
9828 9826 9824 9822 9820 9819 9817 9816 9815 9813 9812 9811 9810 9810 9809 9808 9807 9807 9806 9806 9805 9805 9804 9803 9803 9802 9801 9801 9801 9801 9801 9802 9803 9803 9804 9804 9805 9806 9807 9809 9810 9812 9813 9814 9815 9817 9818 9820 9821 9823 9825 9828 9830 9832 9834 9836 9838 9840 9842 9844 9846 9848 9849 9851 9853 9855 9857 9858 9860 9861 9863 9864 9866 9867 9868 9869 9870 9872 9873 9874 9875 9876 9877 9878 9880
9827 9825 9823 9822 9820 9818 9817 9816 9814 9813 9812 9811 9810 9809 9808 9807 9807 9806 9805 9804 9804 9803 9803 9802 9802 9801 9800 9800 9800 9800 9800 9801 9801 9802 9803 9803 9804 9805 9806 9807 9808 9810 9811 9812 9813 9815 9816 9818 9819 9821 9824 9826 9828 9830 9831 9833 9835 9837 9839 9841 9842 9844 9845 9847 9849 9850 9852 9854 9855 9857 9858 9859 9861 9862 9863 9864 9865 9866 9867 9867 9868 9869 9870 9872 9873
9826 9824 9823 9821 9820 9818 9817 9816 9814 9813 9812 9810 9809 9809 9808 9807 9806 9805 9804 9803 9803 9802 9802 9801 9801 9800 9800 9799 9799 9799 9800 9800 9800 9801 9802 9802 9803 9804 9805 9806 9807 9808 9810 9811 9812 9813 9815 9816 9818 9820 9822 9823 9825 9826 9828 9830 9832 9834 9836 9837 9839 9840 9842 9843 9845 9846 9848 9849 9851 9852 9853 9854 9855 9856 9857 9858 9859 9859 9860 9861 9863 9864 9865 9865 9866
9826 9824 9823 9821 9820 9818 9817 9816 9814 9813 9812 9811 9809 9808 9807 9806 9805 9804 9803 9802 9802 9801 9801 9800 9800 9800 9799 9799 9799 9799 9799 9799 9799 9800 9801 9801 9802 9803 9804 9805 9806 9807 9808 9810 9811 9812 9814 9815 9816 9818 9819 9821 9822 9824 9826 9827 9829 9830 9832 9833 9835 9836 9838 9839 9840 9842 9843 9845 9846 9847 9848 9849 9849 9850 9851 9852 9853 9854 9855 9856 9857 9858 9858 9859 9859
9826 9824 9823 9821 9820 9818 9817 9816 9815 9813 9812 9810 9809 9808 9807 9806 9805 9804 9803 9802 9801 9801 9800 9800 9800 9800 9799 9799 9798 9798 9798 9798 9798 9799 9799 9800 9801 9802 9803 9804 9805 9806 9807 9808 9810 9811 9812 9813 9815 9816 9817 9819 9820 9821 9823 9824 9825 9827 9828 9830 9831 9832 9834 9835 9836 9837 9838 9840 9841 9842 9842 9843 9844 9845 9847 9848 9849 9850 9851 9851 9852 9852 9852 9852 9853
9827 9825 9823 9821 9820 9819 9817 9816 9815 9813 9812 9810 9809 9808 9807 9806 9805 9804 9803 9802 9801 9801 9800 9800 9799 9799 9799 9799 9798 9798 9798 9798 9798 9798 9799 9799 9800 9801 9802 9803 9804 9805 9806 9807 9808 9810 9811 9812 9813 9814 9815 9817 9818 9819 9820 9821 9823 9824 9825 9826 9827 9829 9830 9831 9832 9833 9834 9835 9836 9838 9839 9840 9841 9842 9843 9844 9845 9845 9846 9846 9846 9846 9846 9846 9846
9827 9825 9824 9822 9821 9820 9818 9817 9815 9814 9812 9811 9809 9808 9807 9806 9805 9804 9803 9802 9801 9801 9800 9800 9799 9799 9799 9799 9799 9798 9798 9798 9798 9798 9799 9799 9800 9801 9802 9803 9804 9804 9805 9806 9807 9808 9810 9811 9812 9813 9814 9815 9816 9817 9818 9819 9820 9821 9823 9824 9825 9826 9827 9828 9829 9830 9831 9833 9833 9834 9836 9836 9837 9838 9839 9839 9840 9840 9840 9841 9841 9841 9841 9840 9840
9828 9826 9824 9823 9821 9820 9819 9817 9816 9814 9813 9812 9810 9809 9808 9807 9806 9805 9804 9803 9802 9801 9800 9800 9800 9800 9800 9800 9800 9799 9799 9799 9799 9800 9800 9800 9801 9801 9802 9803 9804 9804 9805 9806 9807 9808 9809 9810 9811 9812 9813 9814 9815 9816 9817 9818 9819 9820 9821 9822 9823 9824 9825 9826 9827 9828 9829 9830 9831 9832 9832 9833 9834 9834 9835 9835 9835 9835 9836 9836 9836 9835 9835 9834 9834
9829 9827 9825 9823 9822 9821 9820 9818 9817 9816 9814 9813 9812 9811 9809 9808 9807 9806 9804 9803 9802 9801 9801 9801 9801 9800 9801 9800 9800 9800 9800 9800 9801 9801 9801 9801 9801 9802 9803 9803 9804 9805 9806 9806 9807 9808 9809 9810 9811 9812 9813 9814 9815 9816 9816 9817 9818 9819 9820 9821 9822 9823 9824 9824 9825 9826 9827 9828 9828 9829 9829 9829 9830 9830 9830 9831 9831 9831 9831 9830 9830 9829 9828 9828 9827
9830 9828 9826 9824 9823 9822 9820 9819 9818 9816 9816 9815 9813 9812 9811 9809 9808 9807 9806 9804 9803 9803 9802 9802 9801 9801 9801 9801 9801 9801 9801 9801 9802 9802 9802 9802 9802 9802 9803 9804 9804 9805 9806 9806 9807 9808 9809 9810 9811 9812 9812 9813 9814 9815 9816 9817 9817 9818 9819 9820 9820 9821 9822 9822 9823 9824 9824 9824 9825 9825 9825 9825 9826 9826 9826 9826 9826 9826 9825 9825 9824 9823 9822 9821 9819
9831 9829 9827 9825 9824 9823 9821 9820 9819 9818 9817 9816 9814 9813 9812 9811 9809 9808 9807 9806 9805 9804 9803 9803 9802 9802 9802 9802 9802 9802 9802 9802 9802 9802 9802 9803 9803 9803 9803 9804 9805 9805 9806 9806 9807 9808 9809 9810 9810 9811 9812 9813 9813 9814 9815 9815 9816 9817 9817 9818 9818 9819 9819 9820 9820 9820 9821 9821 9821 9822 9822 9822 9822 9822 9821 9821 9820 9820 9819 9818 9817 9816 9815 9814 9812
9832 9830 9828 9827 9825 9824 9823 9821 9820 9819 9818 9817 9815 9814 9813 9812 9810 9809 9808 9807 9806 9805 9805 9804 9804 9803 9803 9803 9803 9803 9803 9803 9803 9803 9803 9803 9803 9804 9804 9804 9805 9805 9806 9806 9807 9808 9808 9809 9810 9810 9811 9812 9812 9813 9814 9814 9815 9815 9816 9816 9817 9817 9817 9818 9818 9819 9819 9819 9819 9819 9818 9818 9818 9817 9816 9815 9815 9814 9812 9811 9810 9809 9808 9806 9805
9833 9831 9829 9828 9826 9825 9824 9823 9821 9820 9819 9817 9816 9815 9814 9813 9811 9810 9809 9808 9808 9807 9806 9806 9805 9805 9805 9805 9805 9804 9804 9804 9804 9804 9804 9804 9804 9804 9805 9805 9805 9805 9806 9806 9807 9807 9808 9809 9809 9810 9810 9811 9811 9812 9813 9813 9814 9815 9815 9816 9816 9816 9817 9817 9817 9817 9817 9816 9816 9815 9815 9814 9813 9812 9811 9810 9808 9808 9806 9805 9804 9803 9801 9800 9798
9834 9832 9830 9829 9827 9826 9825 9824 9823 9821 9820 9818 9817 9816 9815 9814 9813 9812 9811 9810 9809 9809 9808 9807 9807 9807 9806 9806 9806 9806 9806 9805 9805 9805 9805 9805 9805 9806 9806 9806 9806 9807 9807 9807 9807 9808 9808 9809 9809 9810 9810 9811 9811 9812 9813 9813 9814 9814 9815 9815 9815 9815 9815 9815 9815 9814 9814 9813 9812 9811 9810 9809 9808 9806 9805 9804 9802 9801 9800 9799 9797 9796 9794 9793 9791
9835 9833 9831 9830 9828 9827 9826 9825 9824 9822 9821 9820 9818 9817 9816 9815 9814 9813 9812 9811 9811 9810 9810 9809 9809 9808 9808 9808 9808 9808 9807 9807 9807 9807 9807 9807 9807 9807 9807 9807 9808 9808 9808 9808 9808 9808 9809 9809 9809 9810 9810 9811 9811 9812 9812 9812 9812 9812 9812 9812 9812 9812 9812 9811 9811 9810 9809 9808 9807 9806 9805 9803 9802 9801 9799 9798 9796 9795 9794 9792 9791 9789 9788 9786 9784
9836 9834 9832 9830 9829 9828 9827 9826 9825 9824 9822 9821 9820 9819 9818 9817 9816 9815 9814 9813 9813 9813 9812 9811 9811 9810 9810 9810 9810 9809 9809 9809 9809 9808 9808 9808 9808 9808 9808 9808 9808 9808 9808 9808 9808 9808 9809 9809 9809 9809 9810 9810 9810 9810 9810 9810 9810 9809 9809 9809 9809 9808 9808 9807 9806 9805 9804 9803 9802 9801 9799 9798 9797 9795 9794 9792 9791 9789 9788 9786 9785 9783 9782 9780 9778
9837 9835 9833 9831 9830 9829 9828 9827 9826 9825 9824 9823 9822 9821 9820 9819 9818 9817 9816 9816 9815 9815 9814 9813 9813 9812 9812 9812 9812 9811 9811 9810 9810 9810 9809 9809 9809 9809 9809 9809 9809 9808 9808 9808 9808 9808 9808 9808 9808 9808 9807 9807 9807 9807 9807 9807 9806 9806 9805 9805 9804 9804 9803 9802 9801 9800 9799 9798 9797 9795 9794 9793 9792 9790 9789 9787 9786 9784 9782 9781 9779 9777 9775 9773 9771
9838 9836 9834 9832 9831 9830 9829 9828 9828 9827 9826 9825 9824 9823 9822 9821 9820 9819 9819 9818 9818 9817 9817 9816 9815 9815 9814 9814 9814 9813 9812 9812 9811 9811 9811 9810 9810 9810 9809 9809 9809 9809 9808 9808 9807 9807 9806 9806 9806 9805 9805 9805 9805 9804 9804 9803 9803 9802 9802 9801 9800 9799 9798 9798 9797 9795 9794 9793 9792 9791 9790 9789 9787 9786 9784 9782 9781 9779 9777 9775 9773 9770 9768 9766 9763
9840 9838 9835 9834 9833 9832 9831 9830 9829 9829 9828 9827 9826 9825 9824 9823 9823 9822 9821 9821 9820 9820 9819 9818 9817 9817 9816 9816 9815 9815 9814 9813 9813 9812 9812 9811 9810 9810 9810 9809 9809 9808 9807 9807 9806 9806 9805 9805 9804 9804 9804 9803 9803 9802 9801 9801 9800 9799 9798 9797 9797 9796 9795 9794 9793 9792 9791 9789 9788 9787 9786 9784 9783 9781 9779 9777 9775 9773 9770 9768 9765 9763 9761 9758 9756
9842 9840 9837 9835 9834 9833 9832 9832 9831 9830 9830 9829 9828 9827 9826 9825 9824 9824 9823 9823 9822 9822 9821 9820 9819 9818 9818 9817 9817 9816 9815 9814 9814 9813 9812 9812 9811 9810 9810 9809 9808 9808 9807 9806 9806 9805 9804 9804 9803 9803 9802 9801 9801 9800 9799 9798 9797 9796 9795 9794 9793 9792 9791 9790 9789 9788 9786 9785 9783 9782 9781 9779 9777 9775 9773 9771 9769 9766 9763 9761 9758 9755 9753 9751 9748
9843 9841 9839 9837 9836 9835 9834 9833 9833 9832 9831 9831 9830 9829 9828 9827 9826 9825 9825 9824 9824 9823 9822 9822 9821 9820 9819 9818 9818 9817 9816 9815 9814 9814 9813 9812 9811 9810 9809 9809 9808 9807 9806 9805 9804 9804 9803 9802 9802 9801 9800 9799 9798 9798 9797 9796 9795 9794 9792 9791 9790 9789 9787 9786 9785 9783 9782 9780 9779 9777 9775 9773 9771 9769 9767 9764 9762 9759 9756 9754 9751 9748 9746 9743 9741